QPF
0.00 0.00 0.00 0.00 0.00 0.00 0.00 0.00 0.00 0.00 0.00 0.00 0.00 0.00 0.00 0.00 0.00 0.00 0.00 0.00 0.00 0.00 0.00 0.00 0.00 0.00 0.00 0.00 0.00 0.00 0.00 0.00 0.00 0.00 0.00 0.00 0.00 0.00 0.00 0.00 0.00 0.00 0.00 0.00 0.00
0.00 0.00 0.00 0.00 0.00 0.00 0.00 0.00 0.00 0.00 0.00 0.00 0.00 0.00 0.00 0.00 0.00 0.00 0.00 0.00 0.00 0.00 0.00 0.00 0.00 0.00 0.00 0.00 0.00 0.00 0.00 0.00 0.00 0.00 0.00 0.00 0.00 0.00 0.00 0.00 0.00 0.00 0.00 0.00 0.00
0.00 0.00 0.00 0.00 0.00 0.00 0.00 0.00 0.00 0.00 0.00 0.00 0.00 0.00 0.00 0.00 0.00 0.00 0.00 0.00 0.00 0.00 0.00 0.00 0.00 0.00 0.00 0.00 0.00 0.00 0.00 0.00 0.00 0.00 0.00 0.00 0.00 0.00 0.00 0.00 0.00 0.00 0.00 0.00 0.00
0.00 0.00 0.00 0.00 0.00 0.00 0.00 0.00 0.00 0.00 0.00 0.00 0.00 0.00 0.00 0.00 0.00 0.00 0.00 0.00 0.00 0.00 0.00 0.00 0.00 0.00 0.00 0.00 0.00 0.00 0.00 0.00 0.00 0.00 0.00 0.00 0.00 0.00 0.00 0.00 0.00 0.00 0.00 0.00 0.00
0.00 0.00 0.00 0.00 0.00 0.00 0.00 0.00 0.00 0.00 0.00 0.00 0.00 0.00 0.00 0.00 0.00 0.00 0.00 0.00 0.00 0.00 0.00 0.00 0.00 0.00 0.00 0.00 0.00 0.00 0.00 0.00 0.00 0.00 0.00 0.00 0.00 0.00 0.00 0.00 0.00 0.00 0.00 0.00 0.00
0.00 0.00 0.00 0.00 0.00 0.00 0.00 0.00 0.00 0.00 0.00 0.00 0.00 0.00 0.00 0.00 0.00 0.00 0.00 0.00 0.00 0.00 0.00 0.00 0.00 0.00 0.00 0.00 0.00 0.00 0.00 0.00 0.00 0.00 0.00 0.00 0.00 0.00 0.00 0.00 0.00 0.00 0.00 0.00 0.00
0.00 0.00 0.00 0.00 0.00 0.00 0.00 0.00 0.00 0.00 0.00 0.00 0.00 0.00 0.00 0.00 0.00 0.00 0.00 0.00 0.00 0.00 0.00 0.00 0.00 0.00 0.00 0.00 0.00 0.00 0.00 0.00 0.00 0.00 0.00 0.00 0.00 0.00 0.00 0.00 0.00 0.00 0.00 0.00 0.00
0.00 0.00 0.00 0.00 0.00 0.00 0.00 0.00 0.00 0.00 0.00 0.00 0.00 0.00 0.00 0.00 0.00 0.00 0.00 0.00 0.00 0.00 0.00 0.00 0.00 0.00 0.00 0.00 0.00 0.00 0.00 0.00 0.00 0.00 0.00 0.00 0.00 0.00 0.00 0.00 0.00 0.00 0.00 0.00 0.00
0.00 0.00 0.00 0.00 0.00 0.00 0.00 0.00 0.00 0.00 0.00 0.00 0.00 0.00 0.00 0.00 0.00 0.00 0.00 0.00 0.00 0.00 0.00 0.00 0.01 0.01 0.00 0.00 0.00 0.00 0.00 0.00 0.00 0.00 0.00 0.00 0.00 0.00 0.00 0.00 0.00 0.00 0.00 0.00 0.00
0.00 0.00 0.00 0.00 0.00 0.00 0.00 0.00 0.00 0.00 0.00 0.00 0.00 0.00 0.00 0.00 0.00 0.00 0.00 0.00 0.00 0.00 0.00 0.01 0.01 0.01 0.01 0.01 0.00 0.00 0.00 0.00 0.00 0.00 0.00 0.00 0.00 0.00 0.00 0.00 0.00 0.00 0.00 0.00 0.00
0.00 0.00 0.00 0.00 0.00 0.00 0.00 0.00 0.00 0.00 0.00 0.00 0.00 0.00 0.00 0.00 0.00 0.00 0.00 0.00 0.00 0.00 0.00 0.01 0.01 0.01 0.00 0.00 0.00 0.00 0.00 0.00 0.00 0.00 0.00 0.00 0.00 0.00 0.00 0.00 0.00 0.00 0.00 0.00 0.00
0.00 0.00 0.00 0.00 0.00 0.00 0.00 0.00 0.00 0.00 0.00 0.00 0.00 0.00 0.00 0.00 0.00 0.00 0.00 0.00 0.00 0.00 0.00 0.00 0.00 0.00 0.00 0.00 0.00 0.00 0.00 0.01 0.01 0.00 0.00 0.00 0.00 0.00 0.00 0.00 0.00 0.00 0.00 0.00 0.00
0.00 0.00 0.00 0.00 0.00 0.00 0.00 0.00 0.00 0.00 0.00 0.00 0.00 0.00 0.00 0.00 0.00 0.00 0.00 0.00 0.00 0.00 0.00 0.00 0.00 0.00 0.00 0.00 0.00 0.00 0.01 0.01 0.01 0.00 0.00 0.01 0.00 0.00 0.00 0.00 0.00 0.00 0.00 0.00 0.00
0.00 0.00 0.00 0.00 0.00 0.00 0.00 0.00 0.00 0.00 0.00 0.00 0.00 0.00 0.00 0.00 0.00 0.00 0.00 0.00 0.00 0.00 0.00 0.00 0.00 0.00 0.00 0.00 0.00 0.00 0.00 0.00 0.00 0.00 0.02 0.00 0.02 0.00 0.00 0.00 0.00 0.00 0.00 0.00 0.00
0.00 0.00 0.00 0.00 0.00 0.00 0.00 0.00 0.00 0.00 0.00 0.00 0.00 0.00 0.00 0.00 0.00 0.00 0.00 0.00 0.00 0.00 0.00 0.00 0.00 0.00 0.00 0.00 0.00 0.00 0.00 0.00 0.00 0.00 0.00 0.00 0.02 0.00 0.00 0.00 0.00 0.00 0.00 0.00 0.00
0.00 0.00 0.00 0.00 0.00 0.00 0.00 0.00 0.00 0.00 0.00 0.00 0.00 0.00 0.00 0.00 0.00 0.00 0.00 0.00 0.00 0.00 0.00 0.00 0.00 0.00 0.00 0.00 0.00 0.00 0.00 0.00 0.00 0.00 0.00 0.00 0.02 0.01 0.00 0.00 0.00 0.00 0.00 0.00 0.00
0.00 0.00 0.00 0.00 0.00 0.00 0.00 0.00 0.00 0.00 0.00 0.00 0.00 0.00 0.00 0.00 0.00 0.00 0.00 0.00 0.00 0.01 0.00 0.00 0.00 0.00 0.00 0.00 0.00 0.00 0.00 0.01 0.00 0.00 0.00 0.00 0.01 0.01 0.00 0.00 0.00 0.00 0.00 0.00 0.00
0.00 0.00 0.00 0.00 0.00 0.00 0.00 0.00 0.00 0.00 0.00 0.00 0.00 0.00 0.00 0.00 0.00 0.00 0.00 0.00 0.01 0.01 0.01 0.01 0.00 0.00 0.00 0.00 0.00 0.00 0.02 0.02 0.02 0.00 0.00 0.00 0.00 0.00 0.00 0.00 0.00 0.00 0.00 0.00 0.00
0.00 0.00 0.00 0.00 0.00 0.00 0.00 0.00 0.00 0.00 0.00 0.00 0.00 0.00 0.00 0.00 0.00 0.00 0.00 0.00 0.01 0.02 0.02 0.02 0.00 0.00 0.00 0.00 0.00 0.01 0.01 0.01 0.03 0.01 0.00 0.00 0.00 0.00 0.00 0.00 0.00 0.00 0.00 0.00 0.00
0.00 0.00 0.00 0.00 0.00 0.00 0.00 0.00 0.00 0.00 0.00 0.00 0.00 0.00 0.00 0.00 0.00 0.00 0.00 0.00 0.01 0.01 0.01 0.02 0.01 0.00 0.00 0.00 0.02 0.01 0.02 0.02 0.03 0.02 0.01 0.00 0.00 0.00 0.00 0.00 0.00 0.00 0.00 0.00 0.00
0.00 0.00 0.00 0.00 0.00 0.00 0.00 0.00 0.00 0.00 0.00 0.00 0.00 0.00 0.00 0.00 0.00 0.00 0.00 0.00 0.00 0.00 0.00 0.00 0.01 0.00 0.00 0.00 0.00 0.02 0.02 0.00 0.01 0.01 0.02 0.01 0.00 0.00 0.00 0.00 0.00 0.00 0.00 0.00 0.00
0.00 0.00 0.00 0.00 0.00 0.00 0.00 0.00 0.00 0.00 0.00 0.00 0.00 0.00 0.01 0.01 0.01 0.00 0.00 0.01 0.00 0.00 0.00 0.00 0.01 0.00 0.01 0.00 0.00 0.00 0.00 0.00 0.00 0.01 0.01 0.01 0.00 0.00 0.00 0.00 0.00 0.00 0.00 0.00 0.00
0.00 0.00 0.00 0.00 0.00 0.00 0.00 0.00 0.00 0.00 0.00 0.00 0.00 0.01 0.01 0.01 0.02 0.01 0.00 0.00 0.00 0.00 0.00 0.01 0.02 0.02 0.02 0.01 0.00 0.00 0.00 0.00 0.00 0.00 0.00 0.00 0.00 0.00 0.00 0.00 0.00 0.00 0.00 0.00 0.00
0.00 0.00 0.00 0.00 0.00 0.00 0.00 0.00 0.00 0.00 0.00 0.00 0.00 0.00 0.00 0.00 0.01 0.00 0.00 0.00 0.00 0.00 0.00 0.01 0.01 0.00 0.01 0.00 0.00 0.00 0.00 0.00 0.00 0.00 0.00 0.00 0.00 0.00 0.00 0.00 0.00 0.00 0.00 0.00 0.00
0.00 0.00 0.00 0.00 0.00 0.00 0.00 0.00 0.00 0.00 0.00 0.00 0.00 0.00 0.00 0.00 0.00 0.00 0.00 0.00 0.00 0.00 0.00 0.00 0.01 0.00 0.00 0.00 0.00 0.00 0.00 0.00 0.00 0.00 0.00 0.00 0.00 0.00 0.00 0.00 0.00 0.00 0.00 0.00 0.00
0.00 0.00 0.00 0.00 0.00 0.00 0.00 0.00 0.00 0.00 0.00 0.00 0.00 0.00 0.00 0.00 0.00 0.00 0.00 0.00 0.00 0.00 0.00 0.00 0.00 0.00 0.00 0.00 0.00 0.00 0.00 0.00 0.00 0.00 0.00 0.00 0.00 0.00 0.00 0.00 0.00 0.00 0.00 0.00 0.00
0.00 0.00 0.00 0.00 0.00 0.00 0.00 0.00 0.00 0.00 0.00 0.00 0.00 0.00 0.00 0.00 0.00 0.00 0.00 0.00 0.00 0.00 0.00 0.00 0.00 0.00 0.00 0.00 0.00 0.00 0.00 0.00 0.00 0.00 0.00 0.00 0.00 0.00 0.00 0.00 0.00 0.00 0.00 0.00 0.00
MSLP
1015.47 1015.01 1014.49 1014.10 1013.72 1013.32 1012.92 1012.52 1012.11 1011.74 1011.44 1011.20 1010.98 1010.72 1010.48 1010.36 1010.25 1009.79 1009.08 1008.55 1008.50 1008.54 1008.41 1007.71 1007.45 1007.27 1007.28 1006.97 1006.85 1006.80 1005.24 1002.70 1002.09 1001.44 1000.27 1000.76 1000.22 999.95 1000.65 1000.62 1000.21 1000.30 1000.58 1001.27 1002.50
1015.27 1014.89 1014.48 1014.05 1013.58 1013.12 1012.70 1012.26 1011.80 1011.42 1011.12 1010.89 1010.68 1010.41 1010.21 1010.11 1009.67 1008.69 1008.25 1008.62 1008.66 1008.55 1008.13 1007.33 1006.98 1007.19 1006.79 1006.45 1006.42 1006.06 1003.70 1001.98 1001.55 1000.91 1000.27 1000.09 1000.06 1000.46 1000.74 1000.70 1000.41 1000.23 1000.87 1001.94 1002.82
1015.28 1014.83 1014.39 1013.90 1013.39 1012.88 1012.41 1011.93 1011.41 1010.97 1010.67 1010.49 1010.36 1010.24 1010.17 1009.90 1008.88 1007.95 1008.46 1008.43 1008.18 1007.97 1007.85 1007.24 1006.90 1006.99 1006.35 1005.67 1005.25 1004.23 1001.83 1001.74 1001.23 1000.94 1000.65 1000.26 1000.20 1000.36 1000.41 999.88 999.98 1000.05 1000.51 1001.22 1002.31
1015.27 1014.79 1014.33 1013.75 1013.17 1012.65 1012.05 1011.46 1010.95 1010.47 1010.13 1010.00 1010.04 1010.01 1009.97 1009.44 1008.46 1008.19 1008.46 1008.07 1007.62 1007.42 1007.34 1007.22 1006.76 1006.32 1005.99 1004.93 1004.68 1003.47 1002.56 1002.12 1001.69 1001.38 1000.89 1000.61 1000.81 1000.31 999.93 999.68 1000.07 999.88 1000.02 1000.42 1001.60
1015.24 1014.74 1014.20 1013.68 1012.97 1012.34 1011.72 1011.10 1010.43 1009.80 1009.49 1009.48 1009.72 1009.98 1009.91 1008.92 1008.35 1008.48 1008.19 1007.71 1006.81 1006.40 1006.56 1006.57 1006.08 1005.72 1004.80 1003.99 1003.99 1002.77 1002.57 1002.26 1001.72 1001.34 1001.08 1001.01 1000.35 1000.23 999.42 999.94 999.90 999.82 999.89 1000.03 1000.67
1015.28 1014.77 1014.20 1013.53 1012.82 1012.13 1011.45 1010.72 1010.19 1009.70 1009.19 1009.06 1009.36 1009.78 1009.28 1008.60 1009.14 1008.55 1008.11 1007.66 1006.91 1006.70 1006.29 1006.10 1005.51 1005.04 1004.34 1003.59 1003.30 1002.34 1002.00 1001.52 1001.39 1001.36 1001.33 1001.06 1000.59 1000.52 999.41 999.54 999.35 999.60 999.44 999.91 1000.64
1015.29 1014.83 1014.21 1013.57 1012.78 1011.96 1011.29 1010.61 1010.13 1009.69 1009.20 1009.21 1009.38 1009.19 1008.54 1009.47 1008.92 1008.69 1008.15 1007.61 1007.18 1006.85 1006.34 1006.03 1005.82 1005.57 1004.60 1004.33 1003.69 1003.46 1002.39 1001.79 1001.25 1001.30 1000.99 1001.19 999.16 999.10 999.36 999.05 998.77 998.93 999.25 999.80 1000.30
1015.29 1014.75 1014.15 1013.54 1012.76 1011.95 1011.37 1010.76 1010.35 1010.01 1009.71 1009.62 1009.57 1009.02 1008.76 1009.42 1009.17 1008.79 1008.01 1007.32 1006.95 1006.90 1006.61 1006.27 1006.14 1005.88 1005.37 1005.04 1004.15 1003.85 1002.93 1001.33 1000.41 1000.01 1000.14 1001.33 997.05 998.11 997.64 998.02 998.51 998.23 999.17 999.93 1000.63
1015.23 1014.64 1014.04 1013.39 1012.65 1011.85 1011.32 1010.92 1010.62 1010.31 1010.05 1009.86 1009.32 1008.77 1009.11 1009.29 1009.28 1009.23 1008.64 1007.74 1007.19 1006.58 1006.53 1006.52 1006.52 1006.34 1006.22 1005.71 1005.00 1004.28 1001.95 1001.19 999.91 999.80 1000.02 1000.02 998.84 999.15 998.81 999.43 999.70 999.70 999.92 1000.76 1001.76
1015.11 1014.47 1013.95 1013.36 1012.60 1011.93 1011.05 1010.95 1010.73 1010.09 1009.92 1009.45 1009.20 1009.09 1010.06 1010.26 1010.14 1009.67 1008.91 1007.93 1007.24 1006.71 1006.30 1006.54 1006.67 1006.59 1006.54 1006.52 1004.53 1004.04 1002.73 1001.58 1000.19 1000.02 999.93 999.93 999.70 1000.23 1000.07 1001.12 1002.10 1003.57 1004.41 1004.70 1005.34
1015.14 1014.56 1013.85 1013.30 1012.78 1012.23 1010.85 1010.39 1011.09 1010.27 1010.78 1011.46 1011.66 1011.23 1011.24 1011.14 1010.27 1010.20 1009.49 1007.79 1007.42 1006.59 1006.17 1005.99 1006.65 1006.53 1006.86 1006.91 1006.33 1006.00 1005.17 1004.00 1002.27 1001.69 1002.29 1001.12 1001.40 1001.64 1002.14 1004.32 1006.53 1007.54 1008.62 1009.44 1009.76
1015.24 1014.56 1013.85 1013.44 1013.13 1012.59 1011.81 1012.23 1013.92 1014.30 1012.73 1012.38 1012.04 1011.79 1011.62 1011.28 1010.50 1010.56 1010.32 1009.21 1008.44 1007.57 1007.03 1006.57 1005.90 1006.49 1007.55 1007.81 1007.77 1007.14 1006.09 1005.18 1004.40 1003.75 1003.00 1002.68 1003.09 1004.11 1007.20 1009.57 1011.01 1011.91 1012.68 1013.26 1013.32
1015.29 1014.58 1013.82 1013.47 1013.10 1012.90 1013.28 1014.33 1014.50 1014.29 1012.96 1012.75 1012.49 1012.43 1012.19 1011.77 1011.42 1011.30 1011.18 1010.30 1009.28 1008.55 1008.02 1007.76 1007.03 1007.23 1007.61 1007.70 1007.64 1007.17 1006.75 1006.51 1006.40 1005.76 1004.04 1004.08 1004.63 1006.48 1011.08 1012.70 1014.10 1014.72 1015.47 1015.69 1015.73
1015.39 1014.69 1014.00 1013.13 1013.40 1013.24 1013.64 1014.65 1014.48 1014.26 1012.78 1013.26 1012.83 1013.36 1012.88 1011.57 1011.54 1011.79 1011.79 1011.59 1010.28 1009.77 1009.40 1008.45 1008.32 1008.32 1008.11 1008.05 1008.74 1007.91 1007.25 1007.18 1006.78 1006.53 1005.15 1006.02 1006.11 1010.42 1013.18 1014.69 1015.83 1016.76 1017.11 1017.42 1017.54
1015.49 1014.78 1014.37 1013.69 1013.87 1013.65 1015.03 1014.80 1014.54 1014.36 1013.39 1014.03 1013.66 1013.89 1013.11 1013.35 1013.28 1012.69 1012.11 1011.83 1011.16 1010.92 1010.48 1009.47 1009.14 1008.97 1008.49 1008.68 1008.91 1008.29 1007.84 1007.48 1006.99 1006.68 1006.69 1006.82 1008.62 1013.12 1015.17 1016.98 1018.34 1018.85 1019.13 1019.23 1019.29
1015.49 1015.03 1014.26 1014.10 1013.65 1014.89 1014.88 1014.73 1014.55 1013.76 1013.94 1014.43 1014.42 1014.07 1013.53 1013.58 1013.30 1013.20 1012.49 1011.95 1012.04 1011.69 1010.65 1010.15 1009.74 1009.54 1009.38 1009.44 1008.83 1008.27 1007.81 1007.02 1006.42 1006.32 1006.57 1007.59 1009.52 1016.02 1018.32 1020.47 1021.00 1021.18 1021.14 1020.94 1020.62
1015.72 1015.48 1014.91 1014.67 1014.86 1014.78 1014.88 1014.18 1013.47 1013.47 1014.93 1015.44 1015.38 1014.92 1014.38 1014.31 1014.09 1014.03 1013.28 1012.60 1013.27 1013.01 1012.14 1011.04 1010.12 1009.65 1009.89 1009.73 1008.96 1008.62 1008.40 1007.13 1005.84 1005.43 1006.78 1009.54 1012.03 1019.08 1021.45 1022.83 1023.45 1023.50 1023.14 1022.73 1022.19
1015.85 1015.56 1015.28 1014.96 1014.94 1014.72 1014.21 1013.17 1013.85 1015.83 1016.30 1016.66 1016.42 1015.83 1015.48 1015.35 1015.18 1014.90 1014.38 1013.76 1014.17 1014.88 1014.02 1012.79 1011.32 1010.51 1010.57 1010.43 1009.90 1009.36 1009.04 1008.86 1007.98 1007.32 1008.88 1012.52 1017.06 1021.55 1023.72 1024.63 1025.11 1025.23 1024.89 1024.33 1023.43
1015.94 1015.42 1015.24 1015.12 1014.67 1014.28 1013.36 1013.80 1016.49 1017.48 1018.03 1017.61 1016.68 1016.38 1016.28 1016.38 1016.30 1015.59 1015.12 1015.01 1015.60 1016.15 1016.21 1014.58 1012.87 1012.22 1011.02 1010.68 1010.65 1009.67 1009.60 1009.93 1009.70 1009.58 1010.35 1015.32 1020.17 1022.57 1024.59 1025.64 1026.09 1026.18 1026.09 1025.46 1025.14
1015.80 1015.37 1015.62 1015.69 1014.76 1013.23 1013.59 1016.32 1017.76 1018.61 1018.70 1018.49 1017.56 1017.70 1017.16 1017.02 1016.87 1016.26 1015.80 1015.82 1016.54 1016.89 1017.28 1016.19 1014.67 1012.67 1011.40 1010.91 1010.66 1011.04 1011.45 1011.17 1011.27 1011.25 1012.40 1016.48 1020.21 1023.52 1025.80 1027.18 1027.51 1027.43 1027.30 1027.18 1026.72
1015.86 1015.32 1016.61 1016.12 1014.86 1014.52 1015.66 1017.89 1018.86 1019.33 1019.38 1019.14 1018.83 1018.56 1018.27 1017.86 1017.75 1017.12 1016.79 1016.91 1017.59 1017.56 1017.69 1017.00 1015.77 1013.58 1012.41 1013.00 1012.93 1012.59 1013.86 1014.47 1014.17 1013.57 1014.36 1017.04 1022.28 1026.17 1027.72 1028.70 1028.85 1028.86 1028.56 1028.28 1027.69
1015.98 1016.21 1017.31 1016.26 1015.83 1016.81 1018.27 1019.46 1020.21 1019.77 1019.70 1019.60 1019.58 1019.26 1019.07 1019.03 1018.58 1017.88 1017.49 1017.82 1018.72 1018.72 1018.03 1017.38 1016.90 1015.28 1014.32 1015.75 1016.44 1017.07 1018.44 1018.22 1017.44 1015.97 1016.78 1018.70 1024.38 1027.83 1029.09 1029.82 1029.96 1029.89 1029.63 1029.61 1029.05
1016.88 1017.64 1017.76 1016.30 1016.88 1018.47 1019.80 1020.24 1020.50 1020.54 1020.30 1020.24 1020.28 1020.50 1020.79 1020.20 1019.71 1018.91 1018.58 1018.71 1019.34 1019.53 1019.13 1018.91 1017.64 1016.80 1016.84 1017.52 1017.53 1019.70 1021.14 1021.21 1020.65 1020.41 1019.93 1021.46 1026.06 1028.96 1030.15 1030.74 1031.03 1030.90 1030.67 1030.39 1029.70
1017.52 1017.90 1018.51 1018.55 1019.45 1019.74 1020.49 1021.11 1021.08 1021.30 1020.88 1021.24 1021.29 1021.74 1021.84 1021.39 1021.12 1020.51 1020.03 1020.16 1020.64 1020.40 1020.57 1020.04 1019.61 1019.95 1020.41 1021.34 1021.98 1022.83 1023.71 1023.53 1022.63 1022.21 1023.14 1025.23 1027.83 1029.91 1030.94 1031.56 1031.80 1031.75 1031.45 1031.01 1030.72
1018.45 1019.67 1020.26 1020.10 1020.83 1021.27 1021.63 1022.34 1022.49 1022.34 1022.05 1022.01 1022.14 1023.00 1023.35 1023.10 1022.64 1021.92 1022.28 1022.35 1021.69 1021.98 1021.66 1021.83 1021.11 1022.04 1023.03 1023.96 1024.54 1025.63 1026.36 1026.53 1026.16 1026.36 1026.30 1027.86 1029.56 1031.39 1032.13 1032.49 1032.67 1032.61 1032.17 1031.56 1031.25
1019.33 1019.84 1020.87 1021.61 1022.09 1022.34 1023.11 1023.62 1023.76 1023.70 1023.50 1023.36 1023.91 1024.46 1024.17 1024.66 1025.35 1024.85 1024.66 1024.57 1025.02 1023.87 1023.47 1023.57 1022.74 1023.26 1023.99 1025.23 1026.22 1027.25 1028.33 1028.70 1029.19 1029.42 1029.59 1030.21 1031.36 1032.67 1032.87 1032.96 1033.35 1033.36 1032.91 1032.50 1032.19
1020.30 1020.53 1020.73 1022.54 1022.95 1023.43 1024.36 1024.96 1024.76 1024.94 1024.62 1025.07 1025.39 1025.39 1025.25 1025.95 1026.12 1025.90 1025.72 1026.46 1027.10 1026.81 1026.10 1025.52 1024.81 1023.67 1023.18 1025.35 1026.50 1028.12 1030.51 1030.96 1031.20 1031.95 1032.04 1031.95 1032.96 1033.36 1033.38 1033.46 1033.93 1034.12 1033.97 1033.69 1033.25
Thickness
5651 5652 5654 5654 5655 5655 5656 5657 5658 5659 5660 5660 5660 5660 5660 5660 5659 5662 5663 5669 5667 5666 5665 5669 5668 5666 5663 5660 5662 5661 5651 5665 5676 5682 5696 5700 5698 5712 5706 5695 5702 5704 5701 5703 5698
5651 5652 5653 5654 5655 5655 5655 5657 5659 5660 5660 5660 5660 5660 5660 5659 5662 5667 5670 5665 5663 5662 5663 5665 5663 5658 5656 5657 5654 5650 5660 5671 5688 5691 5692 5699 5697 5694 5686 5685 5689 5698 5700 5692 5687
5649 5650 5652 5653 5654 5656 5656 5657 5659 5661 5661 5660 5660 5658 5656 5657 5665 5670 5664 5662 5662 5661 5660 5662 5662 5655 5651 5659 5658 5662 5669 5681 5685 5688 5688 5687 5687 5692 5681 5682 5691 5689 5690 5691 5683
5647 5647 5649 5651 5653 5654 5656 5658 5659 5661 5662 5660 5658 5656 5654 5657 5670 5664 5658 5659 5660 5659 5656 5651 5651 5648 5644 5649 5657 5652 5668 5672 5673 5676 5677 5674 5676 5675 5682 5685 5688 5691 5693 5694 5682
5643 5644 5645 5647 5650 5652 5654 5657 5660 5662 5662 5659 5655 5650 5650 5656 5658 5654 5654 5656 5660 5660 5653 5647 5647 5644 5644 5654 5652 5653 5658 5661 5666 5667 5666 5667 5669 5670 5678 5678 5682 5686 5686 5684 5682
5640 5641 5642 5643 5646 5649 5651 5654 5656 5657 5658 5656 5651 5646 5648 5654 5644 5647 5648 5649 5651 5648 5647 5645 5644 5646 5643 5648 5646 5657 5653 5656 5657 5654 5653 5650 5656 5657 5671 5675 5673 5670 5675 5674 5671
5636 5636 5638 5639 5641 5645 5648 5651 5651 5650 5651 5648 5643 5643 5645 5631 5636 5635 5637 5638 5640 5638 5635 5636 5633 5627 5633 5626 5635 5631 5629 5636 5642 5640 5639 5639 5651 5654 5659 5665 5666 5666 5666 5665 5665
5631 5632 5633 5635 5637 5640 5642 5643 5642 5642 5641 5639 5636 5638 5632 5627 5626 5626 5628 5629 5630 5626 5623 5622 5618 5612 5610 5613 5613 5608 5611 5616 5637 5642 5638 5620 5651 5652 5665 5661 5656 5659 5655 5653 5648
5627 5628 5629 5631 5632 5635 5636 5635 5634 5633 5632 5629 5632 5631 5621 5619 5614 5611 5613 5612 5613 5614 5608 5603 5596 5588 5585 5582 5580 5586 5603 5609 5624 5628 5617 5616 5625 5628 5636 5631 5629 5634 5638 5638 5628
5623 5625 5625 5625 5628 5629 5632 5629 5627 5628 5626 5625 5623 5621 5606 5599 5597 5595 5597 5600 5597 5596 5593 5584 5576 5566 5564 5554 5567 5577 5584 5594 5603 5606 5601 5597 5603 5605 5611 5601 5589 5580 5579 5586 5586
5617 5618 5620 5620 5620 5621 5628 5629 5625 5626 5612 5596 5590 5591 5586 5583 5585 5578 5576 5583 5580 5580 5571 5567 5545 5541 5541 5531 5532 5523 5524 5538 5567 5569 5554 5574 5574 5580 5579 5531 5526 5531 5527 5525 5529
5610 5612 5614 5613 5611 5610 5612 5604 5583 5576 5591 5581 5578 5575 5570 5565 5564 5558 5553 5551 5548 5544 5541 5536 5533 5524 5501 5489 5471 5472 5482 5498 5510 5527 5524 5543 5543 5550 5468 5450 5464 5465 5467 5469 5478
5604 5605 5608 5606 5603 5600 5591 5577 5570 5566 5583 5570 5563 5554 5548 5545 5536 5531 5525 5521 5519 5514 5507 5493 5498 5480 5472 5469 5459 5471 5461 5462 5450 5466 5504 5509 5514 5517 5411 5413 5420 5426 5428 5434 5440
5597 5598 5599 5601 5597 5590 5582 5566 5560 5555 5582 5553 5545 5530 5528 5529 5520 5507 5496 5484 5482 5467 5458 5459 5450 5443 5443 5442 5419 5422 5452 5437 5445 5447 5472 5469 5504 5400 5378 5383 5390 5388 5396 5402 5408
5590 5590 5587 5587 5581 5577 5558 5553 5547 5543 5583 5531 5521 5509 5507 5492 5479 5470 5460 5449 5438 5429 5425 5423 5413 5409 5413 5406 5399 5398 5417 5418 5425 5429 5442 5463 5468 5365 5357 5345 5347 5353 5358 5366 5375
5583 5581 5581 5576 5574 5556 5549 5543 5537 5560 5536 5509 5496 5486 5481 5469 5455 5441 5432 5423 5414 5406 5413 5404 5403 5393 5386 5386 5393 5397 5398 5411 5423 5430 5414 5446 5464 5302 5313 5304 5317 5322 5324 5332 5344
5573 5569 5567 5562 5555 5547 5538 5539 5564 5551 5513 5483 5467 5465 5458 5438 5424 5408 5404 5398 5374 5359 5369 5385 5390 5392 5379 5369 5386 5385 5378 5378 5406 5435 5429 5391 5373 5266 5273 5273 5278 5285 5293 5302 5313
5564 5559 5555 5550 5543 5536 5533 5550 5531 5496 5475 5462 5447 5442 5426 5414 5401 5388 5383 5377 5366 5343 5343 5343 5354 5376 5370 5362 5359 5369 5373 5361 5356 5399 5400 5327 5293 5250 5245 5251 5253 5257 5264 5274 5288
5555 5552 5546 5540 5534 5529 5539 5523 5480 5461 5445 5432 5435 5417 5403 5391 5374 5373 5367 5359 5342 5330 5309 5322 5340 5354 5363 5364 5360 5366 5366 5368 5359 5380 5396 5289 5245 5247 5234 5229 5232 5236 5243 5250 5257
5550 5547 5536 5526 5525 5532 5526 5472 5458 5440 5425 5414 5405 5392 5381 5374 5361 5360 5355 5352 5331 5326 5316 5316 5306 5348 5360 5363 5365 5355 5354 5347 5349 5343 5355 5297 5277 5246 5213 5203 5206 5210 5215 5223 5233
5543 5543 5517 5512 5513 5508 5485 5453 5437 5423 5408 5396 5383 5373 5368 5361 5350 5347 5342 5337 5319 5315 5312 5310 5313 5338 5354 5332 5333 5346 5315 5316 5328 5345 5340 5338 5254 5199 5192 5188 5189 5191 5198 5202 5212
5536 5527 5502 5501 5498 5476 5451 5429 5411 5407 5399 5384 5372 5365 5355 5344 5337 5338 5333 5323 5302 5299 5297 5308 5300 5313 5336 5303 5295 5280 5258 5270 5294 5328 5324 5322 5234 5183 5179 5176 5178 5179 5184 5184 5191
5517 5500 5490 5493 5479 5450 5429 5415 5403 5388 5380 5370 5360 5350 5334 5331 5321 5325 5323 5316 5298 5287 5287 5287 5303 5309 5312 5295 5303 5259 5244 5243 5249 5250 5286 5294 5214 5173 5167 5164 5163 5165 5169 5173 5181
5504 5494 5475 5464 5446 5435 5414 5397 5387 5376 5370 5358 5350 5334 5320 5313 5314 5308 5309 5299 5283 5284 5275 5277 5278 5268 5279 5254 5246 5231 5221 5226 5237 5267 5244 5207 5173 5160 5157 5152 5152 5154 5159 5164 5168
5485 5458 5445 5442 5424 5412 5400 5380 5367 5355 5356 5349 5335 5317 5301 5289 5290 5300 5283 5270 5276 5266 5266 5256 5275 5241 5225 5216 5216 5204 5197 5195 5196 5195 5213 5183 5162 5140 5141 5140 5140 5143 5150 5156 5159
5466 5451 5435 5417 5407 5398 5376 5356 5350 5342 5335 5328 5309 5294 5298 5275 5261 5250 5252 5253 5234 5244 5245 5235 5262 5235 5224 5207 5201 5181 5185 5184 5170 5167 5171 5167 5148 5133 5136 5136 5129 5130 5137 5144 5147
5449 5440 5433 5403 5396 5384 5361 5344 5338 5328 5326 5308 5293 5283 5280 5263 5253 5247 5244 5225 5209 5207 5208 5218 5228 5250 5267 5214 5209 5219 5150 5158 5160 5143 5144 5158 5134 5128 5125 5125 5118 5117 5121 5125 5133